TimeHST,TemperatureF,Dew PointF,Humidity,Sea Level PressureIn,VisibilityMPH,Wind Direction,Wind SpeedMPH,Gust SpeedMPH,PrecipitationIn,Events,Conditions,WindDirDegrees,DateUTC
12:56 AM,69.1,64.0,84,30.04,10.0,SSE,4.6,-,N/A,,Partly Cloudy,150,2013-01-25 10:56:00
1:56 AM,71.1,62.1,73,30.01,10.0,SSE,5.8,-,N/A,,Clear,150,2013-01-25 11:56:00
2:56 AM,70.0,64.0,81,30.01,10.0,SSE,3.5,-,N/A,,Clear,150,2013-01-25 12:56:00
3:56 AM,72.0,61.0,68,30.00,10.0,SE,5.8,-,N/A,,Clear,140,2013-01-25 13:56:00
4:56 AM,70.0,64.0,81,30.01,10.0,SE,3.5,-,N/A,,Clear,140,2013-01-25 14:56:00
5:56 AM,69.1,62.1,78,30.02,10.0,East,3.5,-,N/A,,Overcast,90,2013-01-25 15:56:00
6:56 AM,70.0,63.0,78,30.04,10.0,Calm,Calm,-,N/A,,Partly Cloudy,0,2013-01-25 16:56:00
7:56 AM,71.1,64.0,78,30.05,10.0,South,3.5,-,N/A,,Mostly Cloudy,180,2013-01-25 17:56:00
8:56 AM,78.1,63.0,60,30.04,10.0,ESE,6.9,-,N/A,,Clear,120,2013-01-25 18:56:00
9:56 AM,79.0,63.0,58,30.06,10.0,SSE,9.2,-,N/A,,Clear,150,2013-01-25 19:56:00
10:56 AM,81.0,61.0,50,30.06,10.0,SSE,5.8,-,N/A,,Clear,150,2013-01-25 20:56:00
11:56 AM,82.0,61.0,49,30.04,10.0,SSE,9.2,-,N/A,,Mostly Cloudy,150,2013-01-25 21:56:00
12:56 PM,82.0,62.1,51,30.02,10.0,South,10.4,-,N/A,,Clear,170,2013-01-25 22:56:00
1:56 PM,80.1,61.0,52,30.00,10.0,SE,8.1,-,N/A,,Partly Cloudy,130,2013-01-25 23:56:00
2:56 PM,81.0,62.1,52,29.98,10.0,SSE,8.1,-,N/A,,Scattered Clouds,150,2013-01-26 00:56:00
3:56 PM,79.0,60.1,52,29.99,10.0,SE,11.5,18.4,N/A,,Overcast,140,2013-01-26 01:56:00
4:56 PM,79.0,59.0,50,29.99,10.0,SE,10.4,-,N/A,,Clear,130,2013-01-26 02:56:00
5:56 PM,78.1,59.0,52,30.00,10.0,SE,9.2,-,N/A,,Clear,140,2013-01-26 03:56:00
6:56 PM,75.9,59.0,56,30.01,10.0,SE,5.8,-,N/A,,Clear,130,2013-01-26 04:56:00
7:56 PM,73.9,60.1,62,30.02,10.0,SE,5.8,-,N/A,,Clear,140,2013-01-26 05:56:00
8:56 PM,73.0,61.0,66,30.03,10.0,SSE,4.6,-,N/A,,Clear,150,2013-01-26 06:56:00
9:56 PM,71.1,63.0,75,30.04,10.0,Calm,Calm,-,N/A,,Clear,0,2013-01-26 07:56:00
10:56 PM,71.1,62.1,73,30.04,10.0,SE,5.8,-,N/A,,Clear,140,2013-01-26 08:56:00
11:56 PM,73.9,64.9,73,30.02,10.0,SE,9.2,-,N/A,,Clear,140,2013-01-26 09:56:00